Location: Earls Croome
(52.0667°N, 2.2000°W)
Time: 05:20:57
(UTC+00:00)

Cosmos 1515 Rocket - Pass Details

Date: 17 November 2019
Orbit: 605 x 631 km, 82.5° (Epoch: 05 December)

Event Time Altitude Azimuth Distance (km) Brightness Sun altitude
Rises 06:01:13 0° 346° (NNW) 2,879 6.7 -13.7°
Reaches altitude 10° 06:03:28 10° 342° (NNW) 1,969 5.8 -13.3°
Maximum altitude 06:07:43 56° 265° (W) 728 3.6 -12.7°
Drops below altitude 10° 06:11:57 10° 187° (S) 1,952 6.2 -12.1°
Sets 06:14:11 0° 183° (S) 2,852 7.1 -11.8°
